When you browse on this site, cookies collect data to enhance your experience and personalize the content and advertising you see.
Visit our Privacy Policy to learn more. By continuing to use the site, you agree to this use of cookies and data.
  • In Germany
  • List of Countries
  • For 7 days
  • Water Temperature
  • Satellite Maps
  • Weather Map
  • Weather Widgets
  • user-avatar
    Login

    Hourly Weather Rio Branco

    Today, 17 November, Saturday

    Time Temperature Precipitation Wind Pressure Humidity
    00:00 +23°C° 0.5 mm 0 mps 743 mmHg 95%
    01:00 +23°C° 0.5 mm 0 mps 743 mmHg 95%
    02:00 +23°C° 0.5 mm 0 mps 743 mmHg 95%
    03:00 +23°C° 0.5 mm 0 mps 743 mmHg 96%
    04:00 +23°C° 0.5 mm 0 mps 743 mmHg 96%
    05:00 +24°C° 0.3 mm 0 mps 744 mmHg 93%
    06:00 +25°C° 0.3 mm 0 mps 744 mmHg 90%
    07:00 +26°C° 0.3 mm 0 mps 745 mmHg 87%
    08:00 +29°C° 2 mm 1 mps 745 mmHg 88%
    09:00 +30°C° 2 mm 1 mps 745 mmHg 88%
    10:00 +31°C° 2 mm 1 mps 745 mmHg 88%
    11:00 +32°C° 1.4 mm 1 mps 744 mmHg 80%
    12:00 +33°C° 1.4 mm 1 mps 744 mmHg 73%
    13:00 +34°C° 1.4 mm 1 mps 743 mmHg 65%
    14:00 +33°C° 0.3 mm 1 mps 742 mmHg 67%
    15:00 +33°C° 0.3 mm 1 mps 742 mmHg 69%
    16:00 +32°C° 0.3 mm 1 mps 741 mmHg 71%
    17:00 +29°C° 0.6 mm 0 mps 742 mmHg 77%
    18:00 +27°C° 0.6 mm 0 mps 742 mmHg 83%
    19:00 +25°C° 0.6 mm 0 mps 742 mmHg 89%
    20:00 +25°C° 0 mm 0 mps 743 mmHg 89%
    21:00 +25°C° 0 mm 0 mps 743 mmHg 90%
    22:00 +25°C° 0 mm 0 mps 743 mmHg 91%
    23:00 +24°C° 0 mm 0 mps 743 mmHg 91%

    Tomorrow, 18 November, Sunday

    Time Temperature Precipitation Wind Pressure Humidity
    00:00 +26°C° 0 mm 1 mps 743 mmHg 92%
    01:00 +26°C° 0 mm 1 mps 742 mmHg 93%
    02:00 +26°C° 0.2 mm 1 mps 742 mmHg 93%
    03:00 +26°C° 0.2 mm 1 mps 742 mmHg 94%
    04:00 +26°C° 0.2 mm 1 mps 742 mmHg 94%
    05:00 +27°C° 0 mm 1 mps 743 mmHg 90%
    06:00 +28°C° 0 mm 1 mps 744 mmHg 85%
    07:00 +29°C° 0 mm 1 mps 744 mmHg 80%
    08:00 +30°C° 0.2 mm 1 mps 744 mmHg 74%
    09:00 +32°C° 0.2 mm 1 mps 744 mmHg 67%
    10:00 +34°C° 0.2 mm 2 mps 744 mmHg 61%
    11:00 +34°C° 0 mm 2 mps 744 mmHg 59%
    12:00 +34°C° 0 mm 2 mps 743 mmHg 58%
    13:00 +34°C° 0 mm 2 mps 742 mmHg 56%
    14:00 +33°C° 0 mm 1 mps 741 mmHg 58%
    15:00 +33°C° 0 mm 1 mps 741 mmHg 59%
    16:00 +32°C° 0 mm 1 mps 741 mmHg 61%
    17:00 +31°C° 0.6 mm 1 mps 741 mmHg 67%
    18:00 +27°C° 0.6 mm 0 mps 742 mmHg 73%
    19:00 +25°C° 0.6 mm 0 mps 742 mmHg 80%
    20:00 +25°C° 0.2 mm 0 mps 743 mmHg 81%
    21:00 +24°C° 0.2 mm 0 mps 743 mmHg 82%
    22:00 +24°C° 0.2 mm 0 mps 743 mmHg 82%
    23:00 +24°C° 0.3 mm 0 mps 743 mmHg 86%

    Day after tomorrow, 19 November, Monday

    Time Temperature Precipitation Wind Pressure Humidity
    00:00 +26°C° 0.3 mm 1 mps 742 mmHg 89%
    01:00 +25°C° 0.3 mm 1 mps 742 mmHg 92%
    02:00 +25°C° 0.5 mm 1 mps 742 mmHg 93%
    03:00 +23°C° 0.5 mm 0 mps 742 mmHg 95%
    04:00 +23°C° 0.5 mm 0 mps 742 mmHg 97%
    05:00 +24°C° 0.4 mm 0 mps 743 mmHg 96%
    06:00 +25°C° 0.4 mm 0 mps 744 mmHg 95%
    07:00 +25°C° 0.4 mm 0 mps 745 mmHg 94%
    08:00 +27°C° 1.5 mm 0 mps 745 mmHg 91%
    09:00 +28°C° 1.5 mm 0 mps 745 mmHg 88%
    10:00 +29°C° 1.5 mm 0 mps 745 mmHg 85%
    11:00 +29°C° 2.1 mm 0 mps 744 mmHg 86%
    12:00 +29°C° 2.1 mm 0 mps 743 mmHg 87%
    13:00 +29°C° 2.1 mm 0 mps 743 mmHg 88%
    14:00 +28°C° 1.2 mm 0 mps 742 mmHg 89%
    15:00 +28°C° 1.2 mm 0 mps 742 mmHg 90%
    16:00 +27°C° 1.2 mm 0 mps 742 mmHg 91%
    17:00 +26°C° 0.1 mm 0 mps 742 mmHg 92%
    18:00 +25°C° 0.1 mm 0 mps 743 mmHg 94%
    19:00 +24°C° 0.1 mm 0 mps 743 mmHg 95%
    20:00 +24°C° 0 mm 0 mps 744 mmHg 95%
    21:00 +24°C° 0 mm 0 mps 744 mmHg 95%
    22:00 +26°C° 0 mm 1 mps 744 mmHg 96%
    23:00 +26°C° 0.1 mm 1 mps 744 mmHg 97%

    20 November, Tuesday

    Time Temperature Precipitation Wind Pressure Humidity
    00:00 +25°C° 0.1 mm 1 mps 744 mmHg 97%
    01:00 +25°C° 0.1 mm 1 mps 743 mmHg 98%
    02:00 +25°C° 0 mm 1 mps 743 mmHg 98%
    03:00 +23°C° 0 mm 0 mps 743 mmHg 98%
    04:00 +23°C° 0 mm 0 mps 743 mmHg 98%
    05:00 +23°C° 0.1 mm 0 mps 744 mmHg 96%
    06:00 +24°C° 0.1 mm 0 mps 744 mmHg 94%
    07:00 +25°C° 0.1 mm 0 mps 745 mmHg 92%
    08:00 +27°C° 0.2 mm 0 mps 745 mmHg 84%
    09:00 +31°C° 0.2 mm 1 mps 745 mmHg 76%
    10:00 +32°C° 0.2 mm 1 mps 745 mmHg 68%
    11:00 +32°C° 1.9 mm 1 mps 744 mmHg 74%
    12:00 +31°C° 1.9 mm 1 mps 743 mmHg 81%
    13:00 +31°C° 1.9 mm 1 mps 743 mmHg 87%
    14:00 +31°C° 1 mm 1 mps 742 mmHg 87%
    15:00 +30°C° 1 mm 1 mps 742 mmHg 88%
    16:00 +30°C° 1 mm 1 mps 741 mmHg 88%
    17:00 +27°C° 0.1 mm 0 mps 742 mmHg 90%
    18:00 +26°C° 0.1 mm 0 mps 743 mmHg 91%
    19:00 +25°C° 0.1 mm 0 mps 744 mmHg 93%
    20:00 +24°C° 0 mm 0 mps 744 mmHg 93%
    21:00 +24°C° 0 mm 0 mps 744 mmHg 93%
    22:00 +24°C° 0 mm 0 mps 745 mmHg 94%
    23:00 +24°C° 0 mm 0 mps 744 mmHg 94%

    21 November, Wednesday

    Time Temperature Precipitation Wind Pressure Humidity
    00:00 +23°C° 0 mm 0 mps 744 mmHg 94%
    01:00 +23°C° 0 mm 0 mps 743 mmHg 94%
    02:00 +23°C° 0 mm 0 mps 743 mmHg 95%
    03:00 +23°C° 0 mm 0 mps 744 mmHg 95%
    04:00 +23°C° 0 mm 0 mps 744 mmHg 95%
    05:00 +23°C° 0.1 mm 0 mps 744 mmHg 94%
    06:00 +24°C° 0.1 mm 0 mps 745 mmHg 93%
    07:00 +24°C° 0.1 mm 0 mps 746 mmHg 92%
    08:00 +26°C° 0.2 mm 0 mps 746 mmHg 87%
    09:00 +27°C° 0.2 mm 0 mps 746 mmHg 81%
    10:00 +28°C° 0.2 mm 0 mps 746 mmHg 75%
    11:00 +31°C° 0.1 mm 1 mps 745 mmHg 69%
    12:00 +32°C° 0.1 mm 1 mps 744 mmHg 64%
    13:00 +33°C° 0.1 mm 1 mps 743 mmHg 58%
    14:00 +33°C° 0 mm 1 mps 742 mmHg 62%
    15:00 +32°C° 0 mm 1 mps 741 mmHg 65%
    16:00 +31°C° 0 mm 1 mps 741 mmHg 69%
    17:00 +30°C° 0.2 mm 1 mps 741 mmHg 73%
    18:00 +28°C° 0.2 mm 1 mps 742 mmHg 77%
    19:00 +27°C° 0.2 mm 1 mps 743 mmHg 82%
    20:00 +27°C° 0.3 mm 1 mps 743 mmHg 84%
    21:00 +26°C° 0.3 mm 1 mps 743 mmHg 86%
    22:00 +26°C° 0.3 mm 1 mps 744 mmHg 88%
    23:00 +26°C° 0 mm 1 mps 743 mmHg 90%

    22 November, Thursday

    Time Temperature Precipitation Wind Pressure Humidity
    00:00 +26°C° 0 mm 1 mps 743 mmHg 92%
    01:00 +26°C° 0 mm 1 mps 742 mmHg 93%
    02:00 +25°C° 0 mm 1 mps 742 mmHg 95%
    03:00 +25°C° 0 mm 1 mps 742 mmHg 96%
    04:00 +25°C° 0 mm 1 mps 742 mmHg 97%
    05:00 +26°C° 0 mm 1 mps 743 mmHg 94%
    06:00 +27°C° 0 mm 1 mps 744 mmHg 91%
    07:00 +28°C° 0 mm 1 mps 744 mmHg 87%
    08:00 +29°C° 0 mm 1 mps 744 mmHg 78%
    09:00 +31°C° 0 mm 2 mps 744 mmHg 69%
    10:00 +34°C° 0 mm 2 mps 744 mmHg 60%
    11:00 +34°C° 0 mm 2 mps 743 mmHg 56%
    12:00 +35°C° 0 mm 2 mps 742 mmHg 53%
    13:00 +36°C° 0 mm 2 mps 741 mmHg 49%
    14:00 +36°C° 0 mm 2 mps 741 mmHg 51%
    15:00 +35°C° 0 mm 2 mps 740 mmHg 53%
    16:00 +34°C° 0 mm 1 mps 740 mmHg 55%
    17:00 +32°C° 0 mm 1 mps 740 mmHg 62%
    18:00 +30°C° 0 mm 1 mps 741 mmHg 68%
    19:00 +29°C° 0 mm 1 mps 741 mmHg 75%
    20:00 +28°C° 0 mm 1 mps 741 mmHg 77%
    21:00 +28°C° 0 mm 1 mps 742 mmHg 80%
    22:00 +27°C° 0 mm 1 mps 742 mmHg 82%
    23:00 +27°C° 0 mm 1 mps 742 mmHg 85%
    Show more